{"data":{"norad_id":59234,"intl_designator":"2024-049D","name":"STARLINK-31438","alt_names":[],"object_type":"PAYLOAD","status":"ACTIVE","operator":null,"country":"US","launch_date":"2024-03-16","launch_site_code":"AFETR","launch_vehicle":null,"mission":null,"orbit_class":"UNKNOWN","rcs_meters":null,"size_class":null,"mass_kg":null,"dimensions":null,"purposes":["comms"],"wikipedia_slug":null,"has_3d_model":false,"image_url":null,"decayed_at":null,"tle_current":{"epoch":"2026-09-20T00:29:13.976160Z","epoch_age_seconds":200342,"freshness":"STALE","line1":"1 59234U 24049D   26263.02030065 -.00000103  00000+0  57601-5 0  9995","line2":"2 59234  42.9995 115.0529 0000536 324.4572  35.6244 15.27574859142247","mean_motion":15.27574859,"eccentricity":5.36e-5,"inclination_deg":42.9995,"raan_deg":115.0529,"arg_perigee_deg":324.4572,"mean_anomaly_deg":35.6244,"bstar":5.7601e-6,"rev_number":14224,"period_min":94.267065965112,"perigee_km":482.69672968642,"apogee_km":483.43225048616,"semimajor_km":6861.2014900863,"source":"CELESTRAK","updated_at":"2026-09-21T09:00:34.074487Z"}}}